| time (UTC) | temp F | wind direction | speed knots | gust knots | rain 1hr in | rain 24hr in | rain mn in | humidity % | barometer mb |
| 20260504081551 | 46 | 27 | 10.4 | 17.4 | 0.00 | 0.00 | 0.00 | 58 | 1015.1 |
| 20260504050018 | 54 | 24 | 13.9 | 21.7 | 0.00 | 0.00 | 0.00 | 37 | 1011.2 |
| 20260504044518 | 55 | 35 | 16.5 | 23.5 | 0.00 | 0.00 | 0.00 | 38 | 1011.1 |
| 20260504043019 | 56 | 24 | 11.3 | 18.2 | 0.00 | 0.00 | 0.00 | 39 | 1010.4 |
| 20260504041516 | 56 | 24 | 9.6 | 14.8 | 0.00 | 0.00 | 0.00 | 38 | 1010.0 |
| 20260504040018 | 57 | 53 | 10.4 | 14.8 | 0.00 | 0.00 | 0.00 | 38 | 1009.8 |
| 20260504034516 | 57 | 48 | 8.7 | 13.0 | 0.00 | 0.00 | 0.00 | 37 | 1009.5 |
| 20260504033015 | 58 | 11 | 8.7 | 14.8 | 0.00 | 0.00 | 0.00 | 35 | 1009.1 |
| 20260504031514 | 59 | 36 | 9.6 | 16.5 | 0.00 | 0.00 | 0.00 | 35 | 1008.8 |
| 20260504030013 | 60 | 34 | 9.6 | 14.8 | 0.00 | 0.00 | 0.00 | 35 | 1008.6 |
| 20260504024513 | 61 | 32 | 10.4 | 15.6 | 0.00 | 0.00 | 0.00 | 33 | 1008.4 |
| 20260504023012 | 63 | 37 | 8.7 | 14.8 | 0.00 | 0.00 | 0.00 | 30 | 1008.2 |
| 20260504021510 | 65 | 41 | 9.6 | 16.5 | 0.00 | 0.00 | 0.00 | 27 | 1008.4 |
| 20260504020011 | 67 | 327 | 7.8 | 11.3 | 0.00 | 0.00 | 0.00 | 21 | 1008.3 |
| 20260504014508 | 68 | 17 | 8.7 | 14.8 | 0.00 | 0.00 | 0.00 | 20 | 1008.5 |
| 20260504013007 | 70 | 18 | 8.7 | 14.8 | 0.00 | 0.00 | 0.00 | 19 | 1008.5 |
| 20260504011506 | 71 | 327 | 10.4 | 13.9 | 0.00 | 0.00 | 0.00 | 19 | 1008.5 |
| 20260504010004 | 72 | 319 | 9.6 | 14.8 | 0.00 | 0.00 | 0.00 | 19 | 1008.4 |
| 20260504004505 | 72 | 317 | 11.3 | 16.5 | 0.00 | 0.00 | 0.00 | 18 | 1008.6 |
| 20260504003002 | 72 | 331 | 8.7 | 18.2 | 0.00 | 0.00 | 0.00 | 18 | 1008.8 |
| 20260504001501 | 73 | 13 | 14.8 | 20.0 | 0.00 | 0.00 | 0.00 | 18 | 1008.8 |
| 20260504000139 | 72 | 324 | 11.3 | 20.0 | 0.00 | 0.00 | 0.00 | 18 | 1009.0 |
| 20260504000000 | 73 | 313 | 11.3 | 20.0 | 0.00 | 0.00 | 0.00 | 18 | 1008.9 |
| 20260503234602 | 73 | 298 | 12.2 | 19.1 | 0.00 | 0.00 | 0.00 | 18 | 1008.9 |
| 20260503233059 | 73 | 311 | 11.3 | 19.1 | 0.00 | 0.00 | 0.00 | 19 | 1009.0 |
| 20260503231559 | 73 | 335 | 12.2 | 20.0 | 0.00 | 0.00 | 0.00 | 18 | 1009.0 |
| 20260503230057 | 73 | 341 | 8.7 | 17.4 | 0.00 | 0.00 | 0.00 | 19 | 1009.1 |
| 20260503224556 | 73 | 306 | 11.3 | 18.2 | 0.00 | 0.00 | 0.00 | 19 | 1009.4 |
| 20260503223055 | 73 | 277 | 12.2 | 17.4 | 0.00 | 0.00 | 0.00 | 18 | 1009.5 |
| 20260503221557 | 73 | 294 | 11.3 | 18.2 | 0.00 | 0.00 | 0.00 | 19 | 1009.5 |
| 20260503220052 | 73 | 298 | 14.8 | 24.3 | 0.00 | 0.00 | 0.00 | 18 | 1009.7 |
| 20260503214548 | 72 | 294 | 7.8 | 20.9 | 0.00 | 0.00 | 0.00 | 19 | 1009.8 |
| 20260503213048 | 72 | 287 | 9.6 | 20.9 | 0.00 | 0.00 | 0.00 | 21 | 1009.8 |
| 20260503211549 | 72 | 311 | 14.8 | 18.2 | 0.00 | 0.00 | 0.00 | 20 | 1010.1 |
| 20260503210043 | 72 | 313 | 4.3 | 17.4 | 0.00 | 0.00 | 0.00 | 21 | 1010.4 |
| 20260503204543 | 72 | 330 | 9.6 | 20.0 | 0.00 | 0.00 | 0.00 | 20 | 1010.5 |
| 20260503203057 | 71 | 318 | 7.0 | 15.6 | 0.00 | 0.00 | 0.00 | 21 | 1010.5 |
| 20260503201539 | 71 | 327 | 9.6 | 20.0 | 0.00 | 0.00 | 0.00 | 21 | 1010.7 |
| 20260503200037 | 70 | 332 | 11.3 | 21.7 | 0.00 | 0.00 | 0.00 | 20 | 1010.9 |
| 20260503194538 | 71 | 13 | 10.4 | 17.4 | 0.00 | 0.00 | 0.00 | 20 | 1011.3 |
| 20260503193033 | 71 | 309 | 10.4 | 17.4 | 0.00 | 0.00 | 0.00 | 21 | 1011.4 |
| 20260503191533 | 70 | 288 | 11.3 | 18.2 | 0.00 | 0.00 | 0.00 | 20 | 1011.6 |
| 20260503190037 | 70 | 302 | 12.2 | 16.5 | 0.00 | 0.00 | 0.00 | 21 | 1011.8 |
| 20260503184529 | 69 | 288 | 11.3 | 28.7 | 0.00 | 0.00 | 0.00 | 21 | 1011.9 |
| 20260503183030 | 69 | 295 | 8.7 | 17.4 | 0.00 | 0.00 | 0.00 | 21 | 1012.0 |
| 20260503181528 | 68 | 288 | 7.8 | 17.4 | 0.00 | 0.00 | 0.00 | 22 | 1012.2 |
| 20260503180029 | 69 | 286 | 7.8 | 17.4 | 0.00 | 0.00 | 0.00 | 22 | 1012.4 |
| 20260503174523 | 69 | 328 | 11.3 | 20.0 | 0.00 | 0.00 | 0.00 | 21 | 1012.5 |
| 20260503173038 | 69 | 333 | 7.8 | 13.0 | 0.00 | 0.00 | 0.00 | 22 | 1012.6 |
| 20260503171525 | 68 | 288 | 11.3 | 15.6 | 0.00 | 0.00 | 0.00 | 22 | 1012.6 |